Simultaneous Nadir Overpasses (SNOs) Predictions

Prediction of SNOs between METOP-A and TERRA Satellite Orbit:

Table of predicted SNOs for the next 14.0 days since TLE Epoch: 12/9/2011
Index Date Time (METOP-A) METOP-A Lat,Lon TERRA Lat,Lon Distance(km) Time Diff (sec)
1 12/12/2011 11:43:17 81.22, 51.04 81.22, 50.88 2.84 6
2 12/12/2011 12:33:56 -81.23,-141.06 -81.24,-141.21 2.61 67
3 12/15/2011 07:17:39 81.22, 117.34 81.21, 117.18 2.96 2
4 12/15/2011 08:08:18 -81.23, -74.75 -81.23, -74.88 2.25 71
5 12/18/2011 02:01:21 -81.21, 15.87 -81.21, 15.88 0.75 71
6 12/18/2011 02:52:01 81.22,-176.38 81.21,-176.38 0.82 3
7 12/20/2011 21:35:41 -81.22, 82.52 -81.22, 82.47 0.78 66
8 12/20/2011 22:26:21 81.22,-109.74 81.22,-109.81 1.20 8
9 12/23/2011 17:10:03 -81.21, 148.75 -81.21, 148.83 1.29 60




NCC Satellite Simultaneous Nadir Overpasses (SNOs) Prediction Service
